EW5069 Weather Reports


Display with metric or nautical units.
time (UTC)temp
F
wind
direction
speed
MPH
gust
MPH
rain 1hr
in
rain 24hr
in
rain mn
in
humidity
%
barometer
mb
20260508174507 61 360 0.0 0.0 0.00 0.05 0.04 71 1010.3
20260508173005 61 360 0.0 0.0 0.00 0.05 0.04 69 1010.4
20260508171559 60 199 0.0 0.0 0.00 0.05 0.04 73 1010.7
20260508170056 59 200 0.0 0.0 0.00 0.05 0.04 75 1011.0
20260508164553 58 360 0.0 0.0 0.00 0.05 0.04 73 1011.4
20260508163050 59 221 0.0 0.0 0.00 0.05 0.04 71 1011.7
20260508161600 58 360 0.0 0.0 0.00 0.05 0.04 70 1011.9
20260508160043 58 360 0.0 0.0 0.00 0.05 0.04 75 1012.1
20260508154542 58 360 0.0 0.0 0.00 0.05 0.04 73 1012.1
20260508153045 57 188 0.0 0.0 0.00 0.05 0.04 72 1012.1
20260508151536 57 360 0.0 0.0 0.00 0.05 0.04 74 1012.2
20260508150032 56 190 0.0 0.0 0.00 0.05 0.04 75 1012.3
20260508144531 55 360 0.0 0.0 0.00 0.05 0.04 74 1012.6
20260508143029 55 208 0.0 0.0 0.00 0.05 0.04 76 1012.7
20260508141526 54 360 0.0 0.0 0.00 0.05 0.04 80 1012.7
20260508140026 52 360 0.0 0.0 0.00 0.05 0.04 82 1012.9
20260508134520 51 360 0.0 0.0 0.00 0.05 0.04 83 1013.1
20260508133021 51 218 0.0 0.0 0.00 0.05 0.04 81 1013.0
20260508131520 52 360 0.0 0.0 0.00 0.05 0.04 83 1012.7
20260508130024 51 173 0.0 0.0 0.00 0.05 0.04 85 1012.5
20260508124514 50 132 0.0 0.0 0.00 0.05 0.04 86 1012.9
20260508123012 49 186 0.0 0.0 0.00 0.05 0.04 87 1012.8
20260508121509 49 193 0.0 0.0 0.02 0.05 0.04 87 1012.8
20260508120006 48 193 0.0 0.0 0.03 0.05 0.04 88 1012.8
20260508114506 48 360 0.0 0.0 0.04 0.05 0.04 88 1012.6
20260508113010 48 190 0.0 0.0 0.04 0.05 0.04 88 1012.5
20260508111507 48 360 0.0 0.0 0.02 0.03 0.02 88 1012.8
20260508110002 49 360 0.0 0.0 0.01 0.02 0.01 86 1012.5
20260508104501 50 360 0.0 0.0 0.00 0.01 0.00 82 1012.6
20260508103000 50 360 0.0 0.0 0.00 0.01 0.00 78 1012.4
20260508101601 50 360 0.0 0.0 0.00 0.01 0.00 79 1012.5
20260508100059 50 360 0.0 0.0 0.00 0.01 0.00 80 1012.3
20260508094607 50 360 0.0 0.0 0.00 0.01 0.00 79 1012.0
20260508093058 50 360 0.0 0.0 0.00 0.01 0.00 79 1012.5
20260508091602 51 360 0.0 0.0 0.00 0.01 0.00 76 1012.6
20260508090056 51 209 0.0 0.0 0.00 0.01 0.00 75 1012.8
20260508084553 50 360 0.0 0.0 0.00 0.01 0.00 76 1012.5
20260508083056 50 360 0.0 0.0 0.00 0.01 0.00 79 1012.4
20260508081605 49 360 0.0 0.0 0.00 0.01 0.00 82 1012.3
20260508080054 49 360 0.0 0.0 0.00 0.01 0.00 81 1012.4
20260508074547 49 360 0.0 0.0 0.00 0.01 0.00 79 1012.4
20260508073045 50 360 0.0 0.0 0.00 0.01 0.00 77 1012.6
20260508071545 49 360 0.0 0.0 0.00 0.01 0.00 77 1012.6
20260508070046 49 360 0.0 0.0 0.00 0.01 0.00 78 1012.9
20260508064542 48 360 0.0 0.0 0.00 0.01 0.00 79 1012.9
20260508063041 49 192 0.0 0.0 0.00 0.01 0.00 79 1012.9
20260508061540 49 360 0.0 0.0 0.00 0.01 0.00 78 1012.8
20260508060036 48 360 0.0 0.0 0.00 0.01 0.00 82 1012.9
20260508054541 48 193 0.0 0.0 0.00 0.01 0.00 83 1013.0
20260508053033 47 360 0.0 0.0 0.00 0.01 0.00 84 1013.1
20260508051533 48 183 0.0 0.0 0.00 0.01 0.00 84 1013.2
20260508050030 48 190 0.0 0.0 0.00 0.01 0.00 83 1013.2
20260508044528 47 360 0.0 0.0 0.00 0.01 0.00 85 1013.2
20260508043026 46 360 0.0 0.0 0.00 0.01 0.00 86 1013.2
20260508041525 46 360 0.0 0.0 0.00 0.01 0.00 84 1013.3
20260508040022 47 360 0.0 0.0 0.00 0.01 0.00 84 1013.3
20260508034524 47 360 0.0 0.0 0.00 0.01 0.01 82 1013.4
20260508033026 48 184 0.0 0.0 0.00 0.01 0.01 81 1013.4
20260508031520 48 360 0.0 0.0 0.00 0.01 0.01 81 1013.4
20260508030020 48 333 0.0 0.0 0.00 0.01 0.01 81 1013.5
20260508024521 49 346 0.0 0.0 0.00 0.01 0.01 81 1013.5
20260508023021 49 360 0.0 0.0 0.00 0.01 0.01 81 1012.8
20260508021517 48 360 0.0 0.0 0.00 0.01 0.01 81 1012.5
20260508020017 49 190 0.0 0.0 0.00 0.01 0.01 81 1012.6
20260508014519 48 360 0.0 0.0 0.00 0.01 0.01 82 1012.4
20260508013016 49 170 0.0 0.0 0.00 0.01 0.01 81 1012.4
20260508011522 49 360 0.0 0.0 0.00 0.01 0.01 81 1012.4
20260508010016 49 360 0.0 0.0 0.00 0.01 0.01 80 1012.5
20260508004521 50 360 0.0 0.0 0.00 0.01 0.01 79 1012.4
20260508003014 51 163 0.0 0.0 0.00 0.01 0.01 79 1012.5
20260508001512 52 360 0.0 0.0 0.00 0.01 0.01 77 1012.6
20260508000010 51 38 0.0 0.0 0.00 0.01 0.01 77 1012.7
20260507234517 51 360 0.0 0.0 0.00 0.01 0.01 78 1013.0
20260507233008 51 360 0.0 0.0 0.00 0.01 0.01 77 1013.0
20260507231507 51 360 0.0 0.0 0.00 0.01 0.01 79 1013.3
20260507230006 52 360 0.0 0.0 0.01 0.01 0.01 79 1013.4
20260507224508 52 360 0.0 0.0 0.01 0.01 0.01 79 1013.7
20260507223005 51 360 0.0 0.0 0.01 0.01 0.01 81 1013.9
20260507221511 50 360 0.0 0.0 0.01 0.01 0.01 81 1014.4
20260507220003 54 360 0.0 0.0 0.00 0.00 0.00 62 1014.0
20260507214503 54 360 0.0 0.0 0.00 0.00 0.00 61 1013.6
20260507213000 55 360 0.0 0.0 0.00 0.00 0.00 60 1013.3
20260507211606 56 360 0.0 0.0 0.00 0.00 0.00 59 1013.2
20260507210059 55 360 0.0 0.0 0.00 0.00 0.00 56 1013.4
20260507204605 55 360 0.0 0.0 0.00 0.00 0.00 54 1013.4
20260507203107 55 360 0.0 0.0 0.00 0.00 0.00 51 1013.4
20260507201603 57 360 0.0 0.0 0.00 0.00 0.00 52 1013.5
20260507200056 56 360 0.0 0.0 0.00 0.00 0.00 51 1013.5
20260507194555 57 222 0.0 0.0 0.00 0.00 0.00 56 1013.7
20260507193058 57 360 0.0 0.0 0.00 0.00 0.00 55 1014.0
20260507191550 56 360 0.0 0.0 0.00 0.00 0.00 57 1014.1
20260507190048 57 237 0.0 0.0 0.00 0.00 0.00 54 1014.4
20260507184546 57 360 0.0 0.0 0.00 0.00 0.00 53 1014.6
20260507183046 56 360 0.0 0.0 0.00 0.00 0.00 53 1014.4
20260507181542 56 360 0.0 0.0 0.00 0.00 0.00 55 1014.6
20260507180043 54 360 0.0 0.0 0.00 0.00 0.00 57 1014.9